Flag for Brazil Weather past 2 weeks in Porto Velho, Rondônia, Brazil

Now
93 °F

Scattered clouds.


Feels Like: 96 °F
Forecast: N/A
Wind: 8 mph from Northeast

Location: Porto Velho Aeroporto

Current Time: Sep 4, 2015 at 5:28:12 PM

Latest Report: Sep 4, 2015 at 5:00 PM


Visibility: N/A

Pressure: 29.77 "Hg

Humidity: 41%

Dew point: 66 °F

Location of Porto VelhoLocation

Historic Weather in Porto Velho — Graph

°F

Porto Velho temperature yesterday

Maximum temperature yesterday: 91 °F (at 1:00 PM)
Minimum temperature yesterday: 73 °F (at 6:00 AM)
Average temperature yesterday: 79 °F

Past Weeks' High & Low Weather Summary

 TemperatureHumidityPressure
High99 °F (Aug 20, 4:00 PM)94% (Sep 4, 4:00 AM)30.07 "Hg (Sep 4, 4:00 AM)
Low72 °F (Aug 21, 5:00 AM)19% (Aug 20, 4:00 PM)29.71 "Hg (Aug 25, 4:00 PM)
Average82 °F67%29.86 "Hg
* Reported Aug 20 4:00 PM — Sep 4 4:00 PM, Porto Velho, Weather by CustomWeather, © 2015

Note: Actual official high and low records may vary slightly from our data, if they occured in-between our weather recording intervals... More about our weather records

Advertising

Porto Velho weather history for previous 24 hours

 ConditionsComfort  
Time TempWeatherWind HumidityBarometerVisibility
4:00 PM
Fri, Sep 4
93 °FScattered clouds.8 mph44%29.77 "HgN/A
3:00 PM93 °FScattered clouds.8 mph47%29.80 "HgN/A
2:00 PM93 °FScattered clouds.6 mph49%29.86 "HgN/A
1:00 PM90 °FScattered clouds.6 mph59%29.89 "HgN/A
12:00 PM88 °FScattered clouds.2 mph59%29.92 "HgN/A
11:00 AM86 °FSunny.2 mph66%29.95 "Hg10 mi
10:00 AM82 °FSunny.1 mph74%29.95 "Hg10 mi
9:00 AM79 °FSunny.No wind79%29.95 "Hg10 mi
8:00 AM75 °FClear.2 mph89%29.95 "Hg5 mi
7:00 AM73 °FFog.No wind89%29.92 "Hg3 mi
6:00 AM72 °FFog.No wind94%29.86 "Hg3 mi
5:00 AM72 °FFog.No wind94%29.86 "Hg1 mi
4:00 AM72 °FFog.2 mph94%29.86 "Hg1 mi
3:00 AM73 °FFog.No wind89%29.86 "Hg2 mi
2:00 AM73 °FFog.No wind89%29.86 "Hg2 mi
1:00 AM73 °FFog.No wind89%29.89 "Hg3 mi
12:00 AM73 °FFog.2 mph89%29.89 "Hg3 mi
11:00 PM
Thu, Sep 3
73 °FFog.No wind89%29.89 "Hg3 mi
10:00 PM75 °FFog.2 mph89%29.89 "Hg3 mi
9:00 PM73 °FPassing clouds.No wind89%29.89 "HgN/A
8:00 PM75 °FPassing clouds.3 mph83%29.86 "HgN/A
7:00 PM75 °FPassing clouds.2 mph83%29.86 "HgN/A
6:00 PM75 °FMore clouds than sun.No wind89%29.83 "HgN/A
5:00 PM75 °FMore clouds than sun.1 mph83%29.80 "HgN/A
Weather by CustomWeather, © 2015

See weather overviewHow to use our weather pages